Terug naar catalogus

STARLINK-37455

ActiefCommunicatieSSO
NORAD 69299·PAYLOAD·🇺🇸 United States

Gelanceerd May 30, 2026 vanaf Vandenberg Space Force Base

Loading…

Volgende Passages (komende 24 uur)

TLE

VersSource: CelesTrak SupGP

Epoch: Sep 14, 2026, 22:46 UTC

1 69299C 26119D   26257.94909722  .00070800  00000+0  21994-2 0  2576
2 69299  97.2824 282.7117 0001436  99.7053  98.7589 15.33379748    11

Volg STARLINK-37455 in realtime met AllMySat

Download on the App Store